RH
28 26 23 20 15 13 13 14 11 10 8 6 4 4 12 29 63 60 82 95 96 95 81 42 41 38 42 58 41 20 15 15 15 16 16 16 16 15 14 12 11 12 15
28 29 26 23 20 17 13 12 14 13 11 10 8 6 4 9 22 69 74 86 90 95 97 81 69 81 43 41 54 48 36 23 16 14 14 13 13 12 11 12 12 16 22
25 25 26 26 24 20 17 15 12 12 13 13 12 9 7 6 7 28 51 69 87 94 94 96 95 88 81 81 36 49 52 51 44 31 20 16 16 17 17 17 21 28 32
32 32 30 26 23 23 22 18 15 13 12 11 12 12 10 8 7 8 20 45 61 86 83 90 95 93 90 78 91 27 28 31 35 45 46 38 36 31 35 38 38 38 41
38 35 33 31 29 25 21 20 20 19 16 13 11 10 10 10 10 8 23 35 56 74 86 81 96 89 78 79 46 92 75 74 73 30 22 38 46 43 45 40 37 29 19
44 42 40 37 34 30 26 23 21 18 17 16 14 12 10 9 10 10 9 12 35 60 88 91 82 90 61 61 72 46 61 91 85 80 63 27 13 13 14 12 14 13 12
24 27 28 28 28 28 27 25 22 22 20 16 14 14 12 10 8 9 9 10 39 59 69 89 84 80 77 63 51 40 54 45 58 86 67 42 14 11 28 21 41 40 37
12 11 11 11 12 13 15 17 18 18 21 19 18 15 12 11 9 7 8 8 15 36 54 60 87 82 68 74 78 78 93 42 54 60 84 64 42 16 37 60 54 44 48
13 11 11 9 7 6 6 7 9 10 12 16 15 15 15 12 10 9 6 7 8 65 41 97 66 86 78 54 70 75 97 94 75 86 60 88 59 84 63 61 53 42 42
11 10 9 8 8 6 6 5 4 4 6 7 10 10 10 13 12 10 8 6 8 14 16 29 92 82 78 67 48 50 95 96 95 88 72 83 42 41 41 44 43 30 30
18 13 9 7 6 6 5 5 5 4 3 3 4 5 6 8 9 11 10 9 6 14 66 15 44 40 49 63 53 40 71 96 91 90 81 88 34 32 22 18 17 16 16
24 20 17 13 10 7 6 5 4 4 4 4 3 2 3 5 6 7 9 9 8 5 12 42 69 83 57 50 60 41 37 66 85 94 100 75 57 50 47 35 28 24 20
19 17 17 15 13 12 10 8 7 5 4 4 3 3 2 3 4 5 5 7 8 6 5 24 86 96 81 53 39 55 48 32 86 91 97 82 79 36 22 21 22 24 24
32 39 56 40 21 17 15 13 19 16 10 6 4 3 3 2 2 2 3 4 6 6 5 8 63 77 93 82 64 58 60 60 58 62 95 98 78 28 27 39 47 31 44
81 77 80 71 95 92 93 67 82 71 50 34 13 4 3 3 2 2 2 2 4 5 4 7 7 70 84 98 93 57 59 56 54 54 98 84 69 31 45 73 78 60 69
89 84 88 85 98 100 100 95 99 100 100 95 53 13 4 3 3 3 2 2 3 3 4 4 5 79 95 99 100 64 68 74 64 64 49 67 81 39 48 98 100 100 89
100 98 97 94 100 100 100 100 100 100 100 100 65 47 15 6 3 3 3 3 3 3 3 3 8 97 93 96 94 95 87 84 85 72 59 54 68 48 33 65 75 94 25
100 100 99 100 100 100 100 100 100 100 100 100 100 100 88 25 7 5 4 4 3 3 4 4 25 100 100 89 90 89 74 80 75 66 59 46 47 42 82 100 96 95 71
100 100 100 100 100 100 100 100 100 100 100 100 100 100 100 100 83 22 49 20 6 4 7 6 69 100 85 100 100 100 86 86 84 66 52 49 46 53 88 62 93 91 30
92 100 100 100 100 100 100 100 100 100 100 100 100 100 100 99 97 49 20 46 31 6 4 61 99 98 100 99 100 100 99 90 75 70 56 48 45 44 47 48 73 40 24
74 100 100 100 100 100 100 100 100 100 100 100 100 100 100 100 100 100 100 67 29 18 6 8 57 94 98 88 100 99 97 79 78 77 68 64 49 47 40 39 40 28 28
62 98 100 100 100 100 100 100 100 100 100 100 100 100 100 100 96 90 100 100 98 48 23 18 15 18 71 74 100 100 98 96 92 96 96 88 96 87 52 56 52 38 30
59 86 100 100 100 100 100 100 100 100 100 100 100 100 100 100 100 100 100 100 89 100 70 64 22 11 24 100 50 47 55 71 86 90 96 99 100 100 100 92 92 86 64
59 61 100 100 100 100 100 100 100 100 100 100 100 100 100 100 100 100 100 100 82 100 88 73 71 18 10 26 100 100 100 100 86 89 100 98 100 99 100 95 90 93 75
60 54 86 100 100 100 100 100 100 100 100 100 100 100 100 100 100 100 100 100 100 100 100 100 79 35 16 43 100 100 99 100 91 97 100 100 100 98 98 98 100 97 55
61 53 54 98 100 100 100 100 100 100 100 100 100 100 100 100 100 100 100 100 100 100 100 100 100 84 42 27 52 75 99 100 97 100 100 90 100 100 100 100 96 79 58
Wind_Speed
66 67 67 65 64 65 64 63 63 64 65 64 62 60 55 51 54 56 55 55 56 57 54 47 42 46 43 43 43 45 44 43 41 40 38 37 37 35 34 33 31 29 28
69 68 69 70 70 70 70 69 66 67 68 68 68 67 65 59 53 52 58 57 58 55 57 53 48 50 45 43 45 45 43 44 43 42 42 41 40 36 35 34 32 32 31
76 75 73 73 73 74 74 74 73 71 70 71 71 72 70 66 63 61 56 58 60 59 57 55 59 52 53 47 42 46 46 43 44 44 44 43 39 39 38 38 37 35 33
84 81 79 78 77 77 78 79 78 77 76 73 74 74 76 73 69 67 63 61 60 60 60 57 56 55 54 51 49 44 44 43 45 44 43 42 40 40 40 39 38 36 34
90 90 89 86 85 84 83 83 83 82 81 81 79 77 78 78 74 70 69 64 62 60 61 59 59 59 55 52 56 54 51 48 46 44 44 45 43 43 40 40 38 38 36
94 94 93 92 90 90 89 88 88 87 87 86 85 83 81 82 79 76 73 68 68 64 60 61 61 59 62 60 57 58 55 59 54 51 49 47 45 43 42 39 38 37 36
89 93 95 96 96 94 92 92 92 91 91 90 90 90 88 85 84 80 78 74 67 68 65 62 63 62 60 61 61 59 59 61 57 56 52 49 47 44 39 39 36 38 38
81 84 90 94 94 96 98 97 96 95 95 94 93 93 93 91 88 83 82 81 79 70 66 65 64 64 64 61 58 61 69 66 63 59 61 53 50 48 46 45 44 39 41
69 72 73 77 82 85 89 97 102 103 101 100 97 96 96 94 93 90 85 83 81 76 69 50 67 64 64 65 64 65 46 62 70 64 65 57 54 53 50 48 49 48 41
64 66 69 71 73 76 78 80 88 97 105 108 105 101 99 98 96 95 91 86 85 81 83 77 63 68 64 66 68 69 61 49 56 67 59 57 55 53 52 51 50 48 50
56 59 62 66 69 71 73 73 76 80 89 99 105 107 105 103 101 99 96 92 88 83 77 78 71 74 77 71 72 71 74 56 49 53 57 62 54 57 52 54 53 51 51
49 51 53 55 59 63 67 68 70 73 77 84 92 100 104 107 107 103 100 98 92 91 89 78 73 71 71 74 73 71 70 66 65 51 51 58 56 54 54 55 52 51 52
41 41 43 45 46 48 52 56 60 64 71 76 82 88 95 101 108 109 106 102 99 91 91 84 83 54 76 79 78 76 69 61 64 57 58 61 57 56 56 56 54 51 50
35 33 34 36 37 37 37 41 45 52 57 66 73 78 85 93 100 106 108 107 103 98 93 90 86 77 74 79 82 78 70 67 64 60 61 60 59 58 54 53 51 50 49
31 31 33 28 28 30 29 32 37 43 46 47 54 66 76 83 91 100 105 106 104 101 96 97 91 75 75 87 82 78 70 69 68 67 59 52 55 54 50 51 51 50 50
27 28 30 28 28 26 28 32 31 33 36 39 42 51 62 73 78 88 103 105 103 102 100 98 92 81 73 65 71 76 72 67 65 66 63 59 56 54 53 47 54 63 53
28 25 28 26 26 22 23 25 25 23 23 29 33 34 43 57 66 74 89 102 105 106 103 102 99 84 67 75 73 66 68 68 65 64 64 65 60 56 54 59 63 53 50
27 25 26 23 21 20 21 21 19 20 18 25 31 32 32 35 47 64 74 84 99 107 110 107 99 89 76 86 75 84 74 73 69 66 65 66 64 59 57 56 47 56 50
22 20 21 19 18 18 19 18 17 17 16 19 30 30 29 30 37 53 63 71 86 99 109 110 104 85 78 50 76 77 75 72 67 67 66 66 66 64 63 71 69 56 52
23 20 20 17 15 15 15 15 14 14 14 16 24 31 36 35 39 37 47 66 69 85 101 107 110 100 82 79 67 75 70 68 68 68 67 67 68 68 69 65 63 59 56
22 20 19 16 14 14 13 13 12 12 11 14 16 18 24 32 33 38 45 42 54 61 84 92 107 112 104 92 70 70 74 69 68 68 68 67 69 68 70 68 66 62 60
21 20 18 17 13 12 11 11 10 10 10 12 14 21 26 25 37 36 40 34 42 47 52 66 81 102 98 94 75 70 67 69 64 59 56 60 61 69 74 69 66 64 64
20 19 17 16 13 12 11 9 9 9 8 10 13 16 19 23 30 34 41 47 45 43 54 53 54 75 98 84 77 75 77 77 73 65 64 50 58 64 63 63 61 61 61
20 18 16 14 13 11 10 10 9 9 8 10 11 15 18 21 31 39 35 44 50 46 47 50 52 59 71 87 64 65 64 64 71 71 64 64 52 52 60 64 67 65 62
20 17 17 15 12 10 9 9 9 9 9 10 10 12 15 20 23 26 25 32 42 54 47 56 60 63 69 78 76 53 55 56 67 76 80 84 61 62 65 67 59 62 64
20 17 18 17 13 11 10 9 10 11 9 10 10 12 15 14 17 21 26 25 36 39 52 45 47 65 69 76 72 70 61 62 64 67 82 85 80 78 72 69 69 69 68
Wind_Direction
258 258 257 254 248 245 244 242 241 242 246 245 244 245 244 243 248 244 243 245 241 236 232 232 235 238 240 241 239 240 240 240 241 243 243 244 245 246 248 248 249 249 251
256 253 251 250 249 248 247 242 238 240 241 244 245 243 243 242 243 244 244 241 243 245 241 233 233 235 237 241 242 241 240 241 241 242 243 245 248 247 249 249 248 250 252
257 255 251 248 247 246 245 245 246 241 239 241 243 245 244 241 239 241 241 242 243 242 243 241 237 234 235 240 242 241 242 240 241 240 242 242 244 246 247 249 250 252 251
259 257 256 254 250 246 245 243 242 244 244 242 241 242 244 243 241 239 240 242 241 242 242 241 242 245 233 240 241 241 241 243 243 244 244 245 245 247 248 250 252 251 253
258 257 255 252 252 252 249 246 244 243 244 244 243 242 243 244 242 240 240 238 241 241 241 239 238 238 239 234 241 240 241 250 247 244 245 244 244 245 246 250 250 251 251
263 262 260 259 256 254 250 248 248 246 244 243 243 242 241 243 242 241 239 238 237 238 239 238 237 235 236 235 234 240 246 247 242 245 248 247 244 244 245 245 247 251 251
267 265 265 263 261 258 254 251 248 247 246 244 242 241 240 239 241 240 239 236 235 236 235 238 236 237 237 237 236 236 240 244 249 242 244 246 243 239 242 241 250 255 255
266 265 263 262 262 261 259 256 253 248 245 244 242 241 238 238 238 238 238 237 235 238 236 237 235 236 236 238 236 236 240 233 237 243 243 240 243 243 244 247 248 249 255
269 268 267 264 260 259 258 258 257 254 249 244 243 242 239 236 236 237 236 236 235 228 232 231 233 232 233 234 233 230 228 248 237 238 240 240 243 242 244 246 249 251 253
271 268 267 266 264 261 257 254 252 253 252 250 246 243 240 238 234 235 234 235 233 231 231 233 236 229 231 232 232 230 238 227 232 231 236 240 243 243 243 244 244 250 250
276 274 271 269 265 263 260 256 252 249 246 246 247 245 243 239 235 233 233 234 232 229 227 231 235 239 238 234 233 232 234 232 250 239 242 237 238 242 246 247 247 249 251
282 280 277 273 270 266 262 259 255 250 247 244 241 240 239 239 236 232 231 232 231 229 231 226 226 234 231 233 234 235 235 239 245 236 235 228 230 239 241 246 246 246 250
287 284 280 276 272 268 265 261 257 253 249 244 241 237 234 232 235 235 231 230 230 229 227 223 217 239 238 232 232 234 234 233 232 238 234 233 231 241 242 246 245 245 248
292 287 285 278 273 269 264 259 255 254 253 249 243 238 235 230 226 230 232 229 227 227 226 222 221 222 231 239 233 230 229 229 232 235 238 229 233 236 239 242 244 246 247
291 289 296 276 268 267 265 251 258 257 256 251 245 239 235 231 226 223 224 225 225 225 224 223 222 225 234 233 231 229 228 227 230 233 232 238 234 234 238 239 246 248 249
295 294 301 269 277 268 263 267 257 252 251 253 248 237 233 233 228 223 221 217 219 221 223 222 219 215 237 232 226 225 227 228 230 234 236 234 233 235 235 235 238 240 245
302 302 307 283 281 278 264 258 259 254 245 239 241 238 235 231 229 225 221 217 215 215 218 219 214 212 222 226 225 225 228 228 229 231 234 235 235 233 235 242 243 240 240
304 306 307 287 283 279 274 266 260 261 250 237 232 231 232 234 229 223 220 218 216 213 214 214 212 214 220 231 233 231 230 229 228 230 231 235 236 234 230 242 231 235 242
299 310 307 291 283 283 280 272 263 263 253 237 231 237 222 226 232 225 221 219 218 218 212 213 205 204 205 215 222 217 224 226 227 229 230 233 234 234 232 237 242 250 243
305 309 315 304 287 283 280 275 261 259 248 233 226 230 225 233 223 214 218 221 223 220 215 209 206 210 210 215 215 217 223 227 228 231 231 232 235 238 239 240 243 245 246
299 305 310 308 291 287 287 280 261 251 240 229 225 230 233 220 212 206 210 207 219 222 220 218 213 213 212 215 222 222 226 228 230 232 233 235 236 238 241 241 242 245 245
298 298 306 314 305 287 283 280 265 245 228 214 215 220 217 214 205 205 206 211 207 207 214 219 222 218 216 215 214 215 226 225 227 225 235 230 236 238 239 240 241 243 245
295 288 296 304 308 295 280 279 266 246 225 209 209 206 200 209 215 221 219 220 213 208 201 209 218 220 215 213 219 223 231 232 231 229 231 223 230 232 232 239 242 242 244
291 282 287 294 305 298 283 265 266 250 223 206 200 201 197 195 210 212 215 213 208 201 201 202 205 210 213 212 214 223 217 224 226 226 220 216 222 220 236 241 244 244 246
286 278 272 276 290 294 285 271 255 250 226 205 197 196 198 194 189 198 200 199 208 214 203 205 200 202 208 207 214 219 204 217 222 227 228 234 238 235 239 238 243 245 249
278 275 266 264 269 281 280 268 246 244 238 211 195 196 200 192 183 196 198 209 208 216 216 200 203 205 205 214 224 228 232 221 233 229 231 235 239 237 244 245 246 248 250